AZA1269 LIRF-LIRN

Flight info

Callsign AZA1269
Flight time 0h 27m
Altitude 25000
Route RIFFI DCT PNZ
Aircraft A320/M-SDE3FGHIRWY/LB1

Departure

Time 2026-02-19 10:29
Airport Rome–Fiumicino Leonardo da Vinci International Airport (LIRF)

Arrival

Time 2026-02-19 10:56
Airport Naples International Airport (LIRN)
Time Latitude Longitude Altitude Speed Heading
2026-02-19 10:02 41.79768 12.24821 151 ft 0 kts 249°
2026-02-19 10:12 41.79768 12.24822 151 ft 0 kts 249°
2026-02-19 10:19 41.79770 12.24829 14 ft 2 kts 250°
2026-02-19 10:20 41.79776 12.24854 22 ft 3 kts 255°
2026-02-19 10:20 41.79780 12.24906 16 ft 3 kts 289°
2026-02-19 10:20 41.79773 12.24924 14 ft 2 kts 334°
2026-02-19 10:21 41.79770 12.24926 15 ft 0 kts 339°
2026-02-19 10:21 41.79769 12.24926 15 ft 0 kts 339°
2026-02-19 10:23 41.79789 12.24916 17 ft 5 kts 339°
2026-02-19 10:23 41.79824 12.24899 14 ft 5 kts 340°
2026-02-19 10:23 41.79846 12.24888 14 ft 6 kts 340°
2026-02-19 10:23 41.79921 12.24851 14 ft 11 kts 339°
2026-02-19 10:24 41.79986 12.24818 14 ft 9 kts 339°
2026-02-19 10:24 41.80147 12.24778 14 ft 17 kts
2026-02-19 10:24 41.80205 12.24893 14 ft 17 kts 82°
2026-02-19 10:25 41.80204 12.25002 14 ft 18 kts 94°
2026-02-19 10:25 41.80235 12.25175 15 ft 21 kts 70°
2026-02-19 10:25 41.80286 12.25361 15 ft 22 kts 69°
2026-02-19 10:25 41.80357 12.25620 15 ft 23 kts 69°
2026-02-19 10:26 41.80413 12.25824 15 ft 24 kts 70°
2026-02-19 10:26 41.80473 12.26040 15 ft 25 kts 69°
2026-02-19 10:26 41.80534 12.26261 17 ft 26 kts 70°
2026-02-19 10:26 41.80576 12.26412 16 ft 26 kts 70°
2026-02-19 10:27 41.80663 12.26726 16 ft 27 kts 70°
2026-02-19 10:27 41.80707 12.26887 14 ft 28 kts 71°
2026-02-19 10:27 41.80799 12.27043 13 ft 19 kts
2026-02-19 10:27 41.80941 12.26961 13 ft 16 kts 308°
2026-02-19 10:28 41.80931 12.26829 14 ft 14 kts 248°
2026-02-19 10:28 41.80665 12.25865 17 ft 117 kts 250°
2026-02-19 10:28 41.80317 12.24612 25 ft 167 kts 248°
2026-02-19 10:29 41.80054 12.23637 349 ft 169 kts 245°
2026-02-19 10:29 41.79646 12.22143 967 ft 170 kts 241°
2026-02-19 10:29 41.79311 12.20617 1714 ft 176 kts 255°
2026-02-19 10:29 41.79229 12.18312 2052 ft 201 kts 259°
2026-02-19 10:30 41.79144 12.16416 2730 ft 201 kts 252°
2026-02-19 10:30 41.78668 12.14719 3525 ft 192 kts 231°
2026-02-19 10:30 41.78099 12.13795 4031 ft 189 kts 218°
2026-02-19 10:30 41.77128 12.12590 4762 ft 192 kts 219°
2026-02-19 10:31 41.76158 12.11387 5477 ft 194 kts 220°
2026-02-19 10:31 41.75168 12.10162 6262 ft 193 kts 221°
2026-02-19 10:31 41.74179 12.08942 6970 ft 195 kts 222°
2026-02-19 10:31 41.73170 12.07689 7622 ft 199 kts 223°
2026-02-19 10:32 41.72159 12.06434 8375 ft 199 kts 224°
2026-02-19 10:32 41.69809 12.04455 9759 ft 214 kts 197°
2026-02-19 10:32 41.68219 12.04328 10023 ft 243 kts 186°
2026-02-19 10:33 41.66446 12.04328 10294 ft 267 kts 186°
2026-02-19 10:33 41.64536 12.04326 10543 ft 290 kts 185°
2026-02-19 10:33 41.62440 12.04781 10762 ft 324 kts 166°
2026-02-19 10:33 41.60437 12.06442 11057 ft 357 kts 141°
2026-02-19 10:34 41.58706 12.08900 11664 ft 365 kts 140°
2026-02-19 10:34 41.56874 12.11265 12355 ft 368 kts 143°
2026-02-19 10:34 41.54962 12.13553 13015 ft 371 kts 144°
2026-02-19 10:34 41.53002 12.15837 13648 ft 376 kts 145°
2026-02-19 10:35 41.51021 12.18155 14239 ft 381 kts 145°
2026-02-19 10:35 41.49032 12.20526 14837 ft 386 kts 144°
2026-02-19 10:35 41.47062 12.22921 15386 ft 391 kts 144°
2026-02-19 10:35 41.45056 12.25396 15952 ft 396 kts 144°
2026-02-19 10:36 41.43030 12.27910 16524 ft 400 kts 144°
2026-02-19 10:36 41.38918 12.33014 17638 ft 409 kts 144°
2026-02-19 10:36 41.36816 12.35605 18198 ft 413 kts 144°
2026-02-19 10:37 41.34693 12.38210 18686 ft 417 kts 144°
2026-02-19 10:37 41.32573 12.40806 19181 ft 421 kts 144°
2026-02-19 10:37 41.30408 12.43458 19640 ft 425 kts 143°
2026-02-19 10:37 41.28223 12.46134 20132 ft 429 kts 143°
2026-02-19 10:38 41.26018 12.48831 20631 ft 433 kts 143°
2026-02-19 10:38 41.23796 12.51548 21106 ft 436 kts 143°
2026-02-19 10:38 41.21563 12.54304 21571 ft 440 kts 142°
2026-02-19 10:38 41.19366 12.57167 22025 ft 445 kts 140°
2026-02-19 10:39 41.17200 12.60132 22469 ft 449 kts 139°
2026-02-19 10:39 41.15045 12.63157 22917 ft 453 kts 139°
2026-02-19 10:39 41.12908 12.66169 23336 ft 456 kts 139°
2026-02-19 10:39 41.10722 12.69228 23709 ft 459 kts 139°
2026-02-19 10:40 41.08507 12.72288 23977 ft 462 kts 139°
2026-02-19 10:40 41.04012 12.78400 22949 ft 463 kts 139°
2026-02-19 10:40 41.01766 12.81425 22280 ft 458 kts 139°
2026-02-19 10:41 40.99539 12.84423 21599 ft 455 kts 140°
2026-02-19 10:41 40.97330 12.87404 20965 ft 451 kts 140°
2026-02-19 10:41 40.95173 12.90322 20367 ft 448 kts 140°
2026-02-19 10:41 40.93065 12.93343 19763 ft 448 kts 133°
2026-02-19 10:42 40.91346 12.96783 19221 ft 451 kts 122°
2026-02-19 10:42 40.90115 13.00605 18663 ft 453 kts 110°
2026-02-19 10:42 40.89244 13.04592 18119 ft 450 kts 109°
2026-02-19 10:42 40.88387 13.08557 17552 ft 446 kts 109°
2026-02-19 10:43 40.87532 13.12477 17021 ft 442 kts 109°
2026-02-19 10:43 40.86681 13.16357 16462 ft 438 kts 109°
2026-02-19 10:43 40.85846 13.20152 15926 ft 435 kts 109°
2026-02-19 10:43 40.85004 13.23972 15341 ft 432 kts 109°
2026-02-19 10:44 40.84166 13.27774 14774 ft 430 kts 109°
2026-02-19 10:44 40.82493 13.35328 13527 ft 428 kts 109°
2026-02-19 10:44 40.81658 13.39083 12871 ft 425 kts 109°
2026-02-19 10:45 40.80826 13.42811 12220 ft 421 kts 109°
2026-02-19 10:45 40.80013 13.46469 11565 ft 407 kts 109°
2026-02-19 10:45 40.79249 13.49926 10941 ft 389 kts 108°
2026-02-19 10:45 40.78515 13.53248 10674 ft 363 kts 109°
2026-02-19 10:46 40.77836 13.56324 10546 ft 336 kts 109°
2026-02-19 10:46 40.77194 13.59206 10193 ft 322 kts 109°
2026-02-19 10:46 40.76565 13.61995 9905 ft 315 kts 109°
2026-02-19 10:46 40.75941 13.64749 9765 ft 313 kts 110°
2026-02-19 10:47 40.75319 13.67491 9635 ft 312 kts 110°
2026-02-19 10:47 40.74698 13.70228 9507 ft 312 kts 110°
2026-02-19 10:47 40.74078 13.72962 9363 ft 310 kts 110°
2026-02-19 10:47 40.73468 13.75665 8904 ft 311 kts 109°
2026-02-19 10:48 40.72859 13.78379 8455 ft 307 kts 110°
2026-02-19 10:48 40.71661 13.83691 7215 ft 296 kts 110°
2026-02-19 10:48 40.71085 13.86266 6727 ft 288 kts 108°
2026-02-19 10:49 40.70894 13.88895 6312 ft 292 kts 88°
2026-02-19 10:49 40.71051 13.91554 5782 ft 290 kts 88°
2026-02-19 10:49 40.71231 13.94212 5283 ft 293 kts 84°
2026-02-19 10:49 40.71772 13.96752 4799 ft 290 kts 67°
2026-02-19 10:50 40.72791 13.99000 4377 ft 278 kts 54°
2026-02-19 10:50 40.73876 14.00980 4309 ft 255 kts 56°
2026-02-19 10:50 40.74842 14.02793 4296 ft 229 kts 56°
2026-02-19 10:50 40.75710 14.04439 4178 ft 209 kts 57°
2026-02-19 10:51 40.76496 14.05930 4116 ft 187 kts 57°
2026-02-19 10:51 40.77204 14.07272 4006 ft 172 kts 57°
2026-02-19 10:51 40.77875 14.08548 3947 ft 171 kts 58°
2026-02-19 10:51 40.78586 14.09804 3905 ft 170 kts 56°
2026-02-19 10:52 40.79291 14.11055 3818 ft 170 kts 57°
2026-02-19 10:52 40.80636 14.13574 3373 ft 167 kts 59°
2026-02-19 10:52 40.81292 14.14822 3117 ft 164 kts 60°
2026-02-19 10:53 40.81940 14.16058 2871 ft 163 kts 61°
2026-02-19 10:53 40.82623 14.17250 2629 ft 163 kts 56°
2026-02-19 10:53 40.83329 14.18397 2481 ft 163 kts 57°
2026-02-19 10:53 40.84016 14.19583 2230 ft 162 kts 60°
2026-02-19 10:54 40.84652 14.20806 1900 ft 161 kts 63°
2026-02-19 10:54 40.85232 14.22053 1608 ft 156 kts 63°
2026-02-19 10:54 40.85801 14.23253 1288 ft 154 kts 62°
2026-02-19 10:54 40.86377 14.24423 1055 ft 150 kts 58°
2026-02-19 10:55 40.86946 14.25579 810 ft 149 kts 58°
2026-02-19 10:55 40.87501 14.26709 550 ft 147 kts 59°
2026-02-19 10:55 40.88040 14.27861 374 ft 148 kts 63°
2026-02-19 10:55 40.88545 14.28961 272 ft 129 kts 58°
2026-02-19 10:56 40.88921 14.29757 249 ft 59 kts 57°
2026-02-19 10:56 40.89025 14.30150 238 ft 15 kts 147°
2026-02-19 10:56 40.88938 14.30151 240 ft 13 kts 230°
2026-02-19 10:57 40.88884 14.30057 243 ft 12 kts 233°
2026-02-19 10:57 40.88835 14.29971 246 ft 11 kts 232°
2026-02-19 10:57 40.88785 14.29886 249 ft 14 kts 232°
2026-02-19 10:57 40.88720 14.29773 252 ft 16 kts 233°
2026-02-19 10:58 40.88656 14.29662 256 ft 15 kts 232°
2026-02-19 10:58 40.88594 14.29556 259 ft 14 kts 233°
2026-02-19 10:58 40.88536 14.29454 262 ft 14 kts 232°
2026-02-19 10:58 40.88473 14.29346 265 ft 16 kts 232°
2026-02-19 10:59 40.88408 14.29233 268 ft 16 kts 233°
2026-02-19 10:59 40.88343 14.29120 271 ft 15 kts 232°
2026-02-19 10:59 40.88279 14.29011 273 ft 15 kts 233°
2026-02-19 10:59 40.88217 14.28902 276 ft 15 kts 232°
2026-02-19 11:00 40.88154 14.28794 279 ft 15 kts 232°
2026-02-19 11:00 40.88031 14.28581 284 ft 15 kts 233°
2026-02-19 11:00 40.87962 14.28486 287 ft 13 kts 218°
2026-02-19 11:01 40.87941 14.28380 289 ft 13 kts 277°
2026-02-19 11:01 40.87951 14.28277 290 ft 10 kts 277°
2026-02-19 11:01 40.87958 14.28201 293 ft 7 kts 277°
2026-02-19 11:01 40.87962 14.28140 294 ft 9 kts 265°
2026-02-19 11:02 40.87919 14.28081 295 ft 10 kts 175°
2026-02-19 11:02 40.87875 14.28123 294 ft 6 kts 141°
2026-02-19 11:02 40.87867 14.28132 296 ft 0 kts 141°